Regional Weather Roundup
Issued by NWS Newport/Morehead, NC

Current Version | Previous Version | Graphics & Text | Print | Product List | Glossary Off
Versions: 1 2 3 4 5 6 7 8 9 10 11 12 13 14 15 16 17 18 19 20 21 22 23 24 25 26 27 28 29 30 31 32 33 34 35 36 37 38 39 40 41 42 43 44 45 46 47 48 49 50

000
ASUS42 KMHX 310510
RWRMHX
WEATHER ROUNDUP FOR EASTERN NORTH CAROLINA
NATIONAL WEATHER SERVICE NEWPORT/MOREHEAD CITY NC
100 AM EDT THU JUL 31 2014

NOTE: "FAIR" INDICATES FEW OR NO CLOUDS BELOW 12,000 FEET
WITH NO SIGNIFICANT WEATHER AND/OR OBSTRUCTIONS TO VISIBILITY

NCZ015>017-031-032-045>047-102-103-310600-
NORTH COAST

CITY           SKY/WX    TMP DP  RH WIND       PRES   REMARKS
EDENTON        PTCLDY    71  63  76 SE5       30.09S
ELIZABETH CITY PTCLDY    70  62  76 S5        30.09S
KITTY HAWK     PTCLDY    72  61  68 SE5       30.08F
MANTEO         NOT AVBL

$$

NCZ045>047-081-094-103-104-310600-
CENTRAL COAST

CITY           SKY/WX    TMP DP  RH WIND       PRES   REMARKS
FRISCO         CLOUDY    74  65  73 NE6       30.09R
SWANQUARTER      N/A     68 N/A N/A E2        30.06S

$$

NCZ095-097-098-100-101-310600-
SOUTHERN COAST

CITY           SKY/WX    TMP DP  RH WIND       PRES   REMARKS
BEAUFORT       MOCLDY    72  68  87 NE3       30.08R
CEDAR ISLAND     N/A     77 N/A N/A NE12      30.12S
JACKSONVILLE   MOCLDY    74  68  81 E8        30.07S
NEWPORT        NOT AVBL
PINEY ISLAND   CLOUDY    78  69  73 E8        30.08S
WILMINGTON     PTCLDY    73  68  84 NE5       30.06S


$$

NCZ011>013-027>030-043-044-078>080-089-090>093-098-310600-
COASTAL PLAIN

CITY           SKY/WX    TMP DP  RH WIND       PRES   REMARKS
AHOSKIE        CLEAR     66  62  88 SE3       30.09S
CLINTON        CLOUDY    70  67  92 CALM      30.08S
ELIZABETHTOWN  MOCLDY    71  66  86 CALM      30.07R
GOLDSBORO      CLOUDY    70  69  98 CALM      30.07R
GREENVILLE     CLOUDY    72  64  78 SE3       30.10S
HAVELOCK       MOCLDY    71  66  84 CALM      30.09S
KENANSVILLE    MOCLDY    67  65  93 CALM      30.09R FOG
KINSTON        CLOUDY    72  65  79 CALM      30.09S
NEW BERN       CLOUDY    72  66  81 CALM      30.09F
RICHLANDS      MOCLDY    70  64  83 E5        30.08S
ROANOKE RAPIDS NOT AVBL
ROCKY MOUNT    MOCLDY    68  65  90 S3        30.09R
WASHINGTON     CLOUDY    69  63  81 E3        30.09S
WHITEVILLE     PTCLDY    69  66  90 CALM      30.06S

$$

AMZ130-135-150-152-154-156-158-170-250-252-270-ANZ085-086-088-633-658-670-310600-
MARINE OBSERVATIONS

STATION/POSITION TIME  TEMP    WIND        PRES    WAVE   SWELL
                       AIR SEA DIR/SP/G            HT/PER HT/PER
                 (UTC) (F)     (DEG/KT/KT) (MB)    (FT/S) (FT/S)
CHESAPEAKE LIGHT NOT AVBL
BUOY 44014       0500   75 78  120/  6/  8 1018.6    3/ 8   2/ 8
DUCK             0500   74 77  120/ 10/ 11 1018.1
2E DUCK          0400                        N/A     2/ 8
OREGON INLET     0500   74 79   80/  4/  5 1019.0
BUOY 44095       0400      78                N/A     3/ 8
20E OREGON INLET NOT AVBL
HATTERAS CG      0500   75 80   70/  5/  7 1019.2
DIAMOND BUOY     0500          VRB  8/ 14  1018.5    3/ 6   3/ 6
CAPE LOOKOUT     0400   79      80/ 11/ 13 1018.1
BEAUFORT LAB     0500   73 82   20/  4/  7 1018.1
30 SE NEW RIVER  0400   80 81   90/ 12/ 16 1018.1
5 SE WRIGHTSVILL 0400   77 81  100/ 12/ 14   N/A
BUOY 41002       0448   79 80   30/  4/  4 1017.0    4/ 6   3/ 6
BUOY 41004       0500   82 83   90/ 12/ 16 1015.9    4/ 5   2/ 7

$$


USA.gov is the U.S. government's official web portal to all federal, state and local government web resources and services.